Weather History for El Centro, CA

Change the Weather History Date:

Tuesday, January 21, 2014

  Actual Average Record
Temperature  
Mean Temperature 62 °F -  
Max Temperature 79 °F 69 °F 81 °F (2009)
Min Temperature 44 °F 46 °F 37 °F (2011)
Degree Days  
Heating Degree Days 4    
Growing Degree Days 12 (Base 50)    
Moisture  
Dew Point 19 °F    
Average Humidity 22    
Maximum Humidity 34    
Minimum Humidity 9    
Precipitation  
Precipitation 0.00 in - - ()
Sea Level Pressure  
Sea Level Pressure 30.17 in    
Wind  
Wind Speed 5 mph (West)    
Max Wind Speed 8 mph    
Max Gust Speed -    
Visibility 10 miles    
Events      
Averages and records for this station are not official NWS values.
T = Trace of Precipitation, MM = Missing Value Source: NWS Daily Summary

Daily Weather History Graph

Daily Weather History Graph

Search for Another Location

Airport:

Trip Planner

Search our weather history database for the weather conditions in past years. The results will help you decide how hot, cold, wet, or windy it might be!

Date:

Astronomy

Jan. 21, 2014 Rise Set
Actual Time 6:43 AM PST 5:04 PM PST
Civil Twilight 6:17 AM PST 5:31 PM PST
Nautical Twilight 5:47 AM PST 6:01 PM PST
Astronomical Twilight 5:17 AM PST 6:30 PM PST
Moon 10:21 PM PST (1/21) 9:34 AM PST (1/21)
Length of Visible Light 11h 14m
Length of Day
10h 21m
Waning Gibbous, 73% of the Moon is Illuminated
Jan 21
Waning Gibbous
Jan 23
Last Quarter
Jan 30
New
Feb 6
First Quarter
Feb 14
Full

Hourly Weather History & Observations

Time (PST) Temp. Windchill Dew Point Humidity Pressure Visibility Wind Dir Wind Speed Gust Speed Precip Events Conditions
12:56 AM 46.9 °F - 17.1 °F 30% 30.21 in 10.0 mi West 8.1 mph - N/A   Clear
1:56 AM 46.9 °F - 17.1 °F 30% 30.21 in 10.0 mi SW 8.1 mph - N/A   Clear
2:56 AM 46.0 °F 41.9 °F 16.0 °F 30% 30.21 in 10.0 mi West 8.1 mph - N/A   Clear
3:56 AM 44.1 °F 39.5 °F 16.0 °F 32% 30.20 in 10.0 mi West 8.1 mph - N/A   Clear
4:56 AM 48.0 °F - 14.0 °F 26% 30.20 in 10.0 mi West 3.5 mph - N/A   Clear
5:56 AM 44.1 °F 41.5 °F 17.1 °F 34% 30.22 in 10.0 mi West 4.6 mph - N/A   Mostly Cloudy
6:56 AM 46.0 °F 43.1 °F 15.1 °F 29% 30.23 in 10.0 mi West 5.8 mph - N/A   Mostly Cloudy
7:56 AM 51.1 °F - 15.1 °F 24% 30.24 in 10.0 mi West 5.8 mph - N/A   Overcast
8:56 AM 59.0 °F - 19.0 °F 21% 30.25 in 10.0 mi West 4.6 mph - N/A   Mostly Cloudy
9:56 AM 64.9 °F - 21.9 °F 19% 30.26 in 10.0 mi WSW 3.5 mph - N/A   Mostly Cloudy
10:56 AM 71.1 °F - 21.0 °F 15% 30.24 in 10.0 mi Calm Calm - N/A   Mostly Cloudy
11:56 AM 73.0 °F - 14.0 °F 11% 30.19 in 10.0 mi Calm Calm - N/A   Mostly Cloudy
12:56 PM 75.9 °F - 17.1 °F 11% 30.15 in 10.0 mi Variable 3.5 mph - N/A   Mostly Cloudy
1:56 PM 77.0 °F - 12.9 °F 9% 30.13 in 10.0 mi NW 4.6 mph - N/A   Mostly Cloudy
2:56 PM 79.0 °F - 15.1 °F 9% 30.12 in 10.0 mi NNW 5.8 mph - N/A   Mostly Cloudy
3:56 PM 77.0 °F - 18.0 °F 11% 30.13 in 10.0 mi Calm Calm - N/A   Mostly Cloudy
4:56 PM 72.0 °F - 19.9 °F 14% 30.12 in 10.0 mi Calm Calm - N/A   Mostly Cloudy
5:56 PM 69.1 °F - 21.0 °F 16% 30.12 in 10.0 mi SSW 3.5 mph - N/A   Mostly Cloudy
6:56 PM 63.0 °F - 32.0 °F 31% 30.11 in 10.0 mi West 5.8 mph - N/A   Overcast
7:56 PM 62.1 °F - 28.0 °F 28% 30.11 in 10.0 mi WSW 3.5 mph - N/A   Overcast
8:56 PM 59.0 °F - 25.0 °F 27% 30.12 in 10.0 mi West 4.6 mph - N/A   Mostly Cloudy
9:56 PM 60.1 °F - 27.0 °F 28% 30.11 in 10.0 mi Calm Calm - N/A   Overcast
10:56 PM 57.9 °F - 27.0 °F 31% 30.10 in 10.0 mi WSW 4.6 mph - N/A   Overcast
11:56 PM 60.1 °F - 18.0 °F 20% 30.09 in 10.0 mi Calm Calm - N/A   Clear